Location: ????????
(55.5667°N, 37.5833°E)
Time: 18:18:41
(UTC+00:00)

Cosmos 1743 - Pass Details

Date: 14 April 2026
Orbit: 372 x 379 km, 82.5° (Epoch: 16 May)

Event Time Altitude Azimuth Distance (km) Brightness Sun altitude
Rises 21:34:40 0° 347° (NNW) 2,267 7.2 -24.8°
Reaches altitude 10° 21:36:41 10° 347° (NNW) 1,405 5.9 -24.8°
Enters shadow 21:38:09 26° 345° (NNW) 800 4.3 -24.7°
